Time,TemperatureF,DewpointF,PressureIn,WindDirection,WindDirectionDegrees,WindSpeedMPH,WindSpeedGustMPH,Humidity,HourlyPrecipIn,Conditions,Clouds,dailyrainin,SoftwareType,DateUTC
2013-06-16 00:05:00,63.2,61.0,30.11,SW,224,0.0,0.0,91,0.00,,,0.00,weatherlink.com 1.10,2013-06-16 04:05:00,
2013-06-16 00:20:00,62.9,60.0,30.12,SW,223,0.0,0.0,91,0.00,,,0.00,weatherlink.com 1.10,2013-06-16 04:20:00,
2013-06-16 00:35:00,62.9,60.0,30.12,SW,224,0.0,0.0,91,0.00,,,0.00,weatherlink.com 1.10,2013-06-16 04:35:00,
2013-06-16 00:50:00,62.8,60.0,30.12,SW,224,0.0,0.0,91,0.00,,,0.00,weatherlink.com 1.10,2013-06-16 04:50:00,
2013-06-16 01:05:00,62.6,60.0,30.12,SW,224,0.0,0.0,91,0.00,,,0.00,weatherlink.com 1.10,2013-06-16 05:05:00,
2013-06-16 01:20:00,62.4,60.0,30.12,SW,224,0.0,0.0,91,0.00,,,0.00,weatherlink.com 1.10,2013-06-16 05:20:00,
2013-06-16 01:35:00,62.1,60.0,30.12,SW,224,0.0,0.0,91,0.00,,,0.00,weatherlink.com 1.10,2013-06-16 05:35:00,
2013-06-16 01:50:00,62.0,60.0,30.12,SW,224,0.0,0.0,92,0.00,,,0.00,weatherlink.com 1.10,2013-06-16 05:50:00,
2013-06-16 02:05:00,61.8,60.0,30.12,SW,224,0.0,0.0,92,0.00,,,0.00,weatherlink.com 1.10,2013-06-16 06:05:00,
2013-06-16 02:20:00,61.5,59.0,30.12,SW,224,0.0,0.0,92,0.00,,,0.00,weatherlink.com 1.10,2013-06-16 06:20:00,
2013-06-16 02:35:00,61.4,59.0,30.11,SW,224,0.0,0.0,92,0.00,,,0.00,weatherlink.com 1.10,2013-06-16 06:35:00,
2013-06-16 02:50:00,61.4,59.0,30.11,SW,224,0.0,0.0,93,0.00,,,0.00,weatherlink.com 1.10,2013-06-16 06:50:00,
2013-06-16 03:05:00,61.1,59.0,30.11,SW,224,0.0,0.0,93,0.00,,,0.00,weatherlink.com 1.10,2013-06-16 07:05:00,
2013-06-16 03:20:00,61.0,59.0,30.10,SW,224,0.0,0.0,93,0.00,,,0.00,weatherlink.com 1.10,2013-06-16 07:20:00,
2013-06-16 03:35:00,60.8,59.0,30.10,SW,224,0.0,0.0,93,0.00,,,0.00,weatherlink.com 1.10,2013-06-16 07:35:00,
2013-06-16 03:50:00,60.7,59.0,30.10,SW,224,0.0,0.0,93,0.00,,,0.00,weatherlink.com 1.10,2013-06-16 07:50:00,
2013-06-16 04:05:00,60.4,58.0,30.10,SW,223,0.0,0.0,93,0.00,,,0.00,weatherlink.com 1.10,2013-06-16 08:05:00,
2013-06-16 04:20:00,60.2,59.0,30.11,SW,224,0.0,0.0,94,0.00,,,0.00,weatherlink.com 1.10,2013-06-16 08:20:00,
2013-06-16 04:35:00,60.0,58.0,30.11,SW,224,0.0,0.0,93,0.00,,,0.00,weatherlink.com 1.10,2013-06-16 08:35:00,
2013-06-16 04:50:00,59.7,58.0,30.11,SW,224,0.0,0.0,94,0.00,,,0.00,weatherlink.com 1.10,2013-06-16 08:50:00,
2013-06-16 05:05:00,59.5,58.0,30.11,SW,224,0.0,0.0,94,0.00,,,0.00,weatherlink.com 1.10,2013-06-16 09:05:00,
2013-06-16 05:20:00,59.4,58.0,30.12,SW,224,0.0,0.0,94,0.00,,,0.00,weatherlink.com 1.10,2013-06-16 09:20:00,
2013-06-16 05:35:00,59.1,57.0,30.12,SW,224,0.0,0.0,94,0.00,,,0.00,weatherlink.com 1.10,2013-06-16 09:35:00,
2013-06-16 05:51:00,59.0,57.0,30.13,SW,224,0.0,0.0,94,0.00,,,0.00,weatherlink.com 1.10,2013-06-16 09:51:00,
2013-06-16 06:06:00,58.9,57.0,30.14,SW,224,0.0,0.0,94,0.00,,,0.00,weatherlink.com 1.10,2013-06-16 10:06:00,
2013-06-16 06:21:00,58.8,57.0,30.14,SW,224,0.0,0.0,94,0.00,,,0.00,weatherlink.com 1.10,2013-06-16 10:21:00,
2013-06-16 06:36:00,58.5,57.0,30.14,SW,224,0.0,0.0,94,0.00,,,0.00,weatherlink.com 1.10,2013-06-16 10:36:00,
2013-06-16 06:51:00,58.6,57.0,30.15,SW,224,0.0,0.0,95,0.00,,,0.00,weatherlink.com 1.10,2013-06-16 10:51:00,
2013-06-16 07:06:00,58.6,57.0,30.15,SW,224,0.0,0.0,95,0.00,,,0.00,weatherlink.com 1.10,2013-06-16 11:06:00,
2013-06-16 07:21:00,58.6,57.0,30.15,SW,224,0.0,0.0,95,0.00,,,0.00,weatherlink.com 1.10,2013-06-16 11:21:00,
2013-06-16 07:36:00,59.0,58.0,30.15,SW,224,0.0,0.0,95,0.00,,,0.00,weatherlink.com 1.10,2013-06-16 11:36:00,
2013-06-16 07:51:00,59.6,58.0,30.16,SW,224,0.0,0.0,95,0.00,,,0.00,weatherlink.com 1.10,2013-06-16 11:51:00,
2013-06-16 08:06:00,60.5,59.0,30.16,SW,224,0.0,0.0,95,0.00,,,0.00,weatherlink.com 1.10,2013-06-16 12:06:00,
2013-06-16 08:21:00,61.5,60.0,30.16,SW,224,0.0,0.0,95,0.00,,,0.00,weatherlink.com 1.10,2013-06-16 12:21:00,
2013-06-16 08:36:00,62.8,61.0,30.16,SW,224,0.0,0.0,95,0.00,,,0.00,weatherlink.com 1.10,2013-06-16 12:36:00,
2013-06-16 08:51:00,63.9,63.0,30.16,SW,224,0.0,0.0,95,0.00,,,0.00,weatherlink.com 1.10,2013-06-16 12:51:00,
2013-06-16 09:06:00,65.2,63.0,30.16,SW,224,0.0,0.0,93,0.00,,,0.00,weatherlink.com 1.10,2013-06-16 13:06:00,
2013-06-16 09:21:00,66.4,63.0,30.16,SW,223,0.0,0.0,88,0.00,,,0.00,weatherlink.com 1.10,2013-06-16 13:21:00,
2013-06-16 09:36:00,68.1,64.0,30.16,WSW,249,0.0,0.0,86,0.00,,,0.00,weatherlink.com 1.10,2013-06-16 13:36:00,
2013-06-16 09:51:00,69.5,63.0,30.16,WSW,250,0.0,0.0,81,0.00,,,0.00,weatherlink.com 1.10,2013-06-16 13:51:00,
2013-06-16 10:06:00,70.9,64.0,30.16,ESE,113,0.0,0.0,79,0.00,,,0.00,weatherlink.com 1.10,2013-06-16 14:06:00,
2013-06-16 10:21:00,71.8,64.0,30.15,ESE,113,0.0,0.0,77,0.00,,,0.00,weatherlink.com 1.10,2013-06-16 14:21:00,
2013-06-16 10:36:00,72.9,65.0,30.14,ESE,113,0.0,0.0,77,0.00,,,0.00,weatherlink.com 1.10,2013-06-16 14:36:00,
2013-06-16 10:51:00,73.9,66.0,30.14,ESE,110,0.0,0.0,76,0.00,,,0.00,weatherlink.com 1.10,2013-06-16 14:51:00,
2013-06-16 11:06:00,75.0,66.0,30.14,ENE,65,1.0,2.0,74,0.00,,,0.00,weatherlink.com 1.10,2013-06-16 15:06:00,
2013-06-16 11:21:00,76.3,67.0,30.13,SE,128,0.0,2.0,72,0.00,,,0.00,weatherlink.com 1.10,2013-06-16 15:21:00,
2013-06-16 11:37:00,77.9,67.0,30.13,SSE,153,1.0,1.0,68,0.00,,,0.00,weatherlink.com 1.10,2013-06-16 15:37:00,
2013-06-16 11:52:00,79.8,69.0,30.12,SE,124,0.0,3.0,70,0.00,,,0.00,weatherlink.com 1.10,2013-06-16 15:52:00,
2013-06-16 12:07:00,81.1,67.0,30.12,SE,131,0.0,2.0,63,0.00,,,0.00,weatherlink.com 1.10,2013-06-16 16:07:00,
2013-06-16 12:22:00,81.6,66.0,30.12,SE,124,1.0,2.0,60,0.00,,,0.00,weatherlink.com 1.10,2013-06-16 16:22:00,
2013-06-16 12:37:00,82.6,67.0,30.11,East,79,0.0,2.0,60,0.00,,,0.00,weatherlink.com 1.10,2013-06-16 16:37:00,
2013-06-16 12:52:00,84.2,67.0,30.11,ESE,117,2.0,3.0,57,0.00,,,0.00,weatherlink.com 1.10,2013-06-16 16:52:00,
2013-06-16 13:07:00,82.6,65.0,30.10,East,88,1.0,3.0,56,0.00,,,0.00,weatherlink.com 1.10,2013-06-16 17:07:00,
2013-06-16 13:22:00,83.7,66.0,30.10,SE,132,2.0,2.0,56,0.00,,,0.00,weatherlink.com 1.10,2013-06-16 17:22:00,
2013-06-16 13:37:00,84.3,66.0,30.09,East,95,0.0,2.0,55,0.00,,,0.00,weatherlink.com 1.10,2013-06-16 17:37:00,
2013-06-16 13:52:00,84.6,67.0,30.09,East,96,1.0,3.0,55,0.00,,,0.00,weatherlink.com 1.10,2013-06-16 17:52:00,
2013-06-16 14:07:00,84.7,67.0,30.08,SSE,150,2.0,3.0,55,0.00,,,0.00,weatherlink.com 1.10,2013-06-16 18:07:00,
2013-06-16 14:22:00,85.9,68.0,30.08,WSW,241,0.0,1.0,55,0.00,,,0.00,weatherlink.com 1.10,2013-06-16 18:22:00,
2013-06-16 14:37:00,86.8,67.0,30.07,ENE,68,0.0,2.0,51,0.00,,,0.00,weatherlink.com 1.10,2013-06-16 18:37:00,
2013-06-16 14:52:00,86.9,67.0,30.07,ESE,119,1.0,3.0,51,0.00,,,0.00,weatherlink.com 1.10,2013-06-16 18:52:00,
2013-06-16 15:07:00,88.3,68.0,30.07,SE,140,0.0,3.0,52,0.00,,,0.00,weatherlink.com 1.10,2013-06-16 19:07:00,
2013-06-16 15:22:00,88.1,68.0,30.07,ESE,113,0.0,3.0,51,0.00,,,0.00,weatherlink.com 1.10,2013-06-16 19:22:00,
2013-06-16 15:37:00,87.4,67.0,30.06,NE,44,0.0,3.0,51,0.00,,,0.00,weatherlink.com 1.10,2013-06-16 19:37:00,
2013-06-16 15:52:00,88.9,68.0,30.06,SE,124,1.0,1.0,51,0.00,,,0.00,weatherlink.com 1.10,2013-06-16 19:52:00,
2013-06-16 16:07:00,89.3,69.0,30.05,ESE,110,1.0,2.0,51,0.00,,,0.00,weatherlink.com 1.10,2013-06-16 20:07:00,
2013-06-16 16:22:00,88.3,67.0,30.04,WSW,256,1.0,3.0,50,0.00,,,0.00,weatherlink.com 1.10,2013-06-16 20:22:00,
2013-06-16 16:37:00,88.6,68.0,30.04,SSE,148,1.0,2.0,50,0.00,,,0.00,weatherlink.com 1.10,2013-06-16 20:37:00,
2013-06-16 16:52:00,87.4,67.0,30.04,SE,128,0.0,2.0,50,0.00,,,0.00,weatherlink.com 1.10,2013-06-16 20:52:00,
2013-06-16 17:07:00,85.9,66.0,30.04,NE,43,0.0,2.0,52,0.00,,,0.00,weatherlink.com 1.10,2013-06-16 21:07:00,
2013-06-16 17:22:00,84.8,67.0,30.04,West,273,0.0,1.0,56,0.00,,,0.00,weatherlink.com 1.10,2013-06-16 21:22:00,
2013-06-16 17:37:00,85.3,69.0,30.03,North,6,0.0,0.0,58,0.00,,,0.00,weatherlink.com 1.10,2013-06-16 21:37:00,
2013-06-16 17:52:00,84.8,68.0,30.03,North,8,0.0,0.0,58,0.00,,,0.00,weatherlink.com 1.10,2013-06-16 21:52:00,
2013-06-16 18:07:00,83.3,68.0,30.02,SW,214,0.0,1.0,61,0.00,,,0.00,weatherlink.com 1.10,2013-06-16 22:07:00,
2013-06-16 18:22:00,80.7,70.0,30.02,SW,214,0.0,1.0,69,0.00,,,0.00,weatherlink.com 1.10,2013-06-16 22:22:00,
2013-06-16 18:37:00,78.9,70.0,30.02,SW,214,0.0,0.0,73,0.00,,,0.00,weatherlink.com 1.10,2013-06-16 22:37:00,
2013-06-16 18:52:00,78.9,69.0,30.02,SSW,213,0.0,0.0,71,0.00,,,0.00,weatherlink.com 1.10,2013-06-16 22:52:00,
2013-06-16 19:07:00,78.9,70.0,30.02,SW,214,0.0,0.0,73,0.00,,,0.00,weatherlink.com 1.10,2013-06-16 23:07:00,
2013-06-16 19:22:00,77.6,70.0,30.02,SW,214,0.0,0.0,76,0.00,,,0.00,weatherlink.com 1.10,2013-06-16 23:22:00,
2013-06-16 19:37:00,77.2,70.0,30.03,SW,214,0.0,0.0,78,0.00,,,0.00,weatherlink.com 1.10,2013-06-16 23:37:00,
2013-06-16 19:52:00,76.1,69.0,30.03,SW,214,0.0,0.0,78,0.00,,,0.00,weatherlink.com 1.10,2013-06-16 23:52:00,
2013-06-16 20:08:00,75.5,69.0,30.03,SW,214,0.0,0.0,81,0.00,,,0.00,weatherlink.com 1.10,2013-06-17 00:08:00,
2013-06-16 20:23:00,75.0,68.0,30.04,SW,214,0.0,0.0,80,0.00,,,0.00,weatherlink.com 1.10,2013-06-17 00:23:00,
2013-06-16 20:38:00,74.7,69.0,30.03,SW,214,0.0,0.0,82,0.00,,,0.00,weatherlink.com 1.10,2013-06-17 00:38:00,
2013-06-16 20:53:00,73.9,69.0,30.04,SW,214,0.0,0.0,84,0.00,,,0.00,weatherlink.com 1.10,2013-06-17 00:53:00,
2013-06-16 21:08:00,73.3,69.0,30.05,SW,214,0.0,0.0,85,0.00,,,0.00,weatherlink.com 1.10,2013-06-17 01:08:00,
2013-06-16 21:23:00,72.9,69.0,30.05,SW,214,0.0,0.0,86,0.00,,,0.00,weatherlink.com 1.10,2013-06-17 01:23:00,
2013-06-16 21:38:00,72.0,69.0,30.05,SW,214,0.0,0.0,89,0.00,,,0.00,weatherlink.com 1.10,2013-06-17 01:38:00,
2013-06-16 21:53:00,71.1,68.0,30.06,SW,214,0.0,0.0,91,0.05,,,0.05,weatherlink.com 1.10,2013-06-17 01:53:00,
2013-06-16 22:08:00,70.5,68.0,30.06,SW,214,0.0,0.0,92,0.09,,,0.09,weatherlink.com 1.10,2013-06-17 02:08:00,
2013-06-16 22:23:00,70.2,68.0,30.06,SSW,213,0.0,0.0,92,0.13,,,0.13,weatherlink.com 1.10,2013-06-17 02:23:00,
2013-06-16 22:38:00,69.9,68.0,30.07,SSW,212,0.0,1.0,93,0.15,,,0.15,weatherlink.com 1.10,2013-06-17 02:38:00,
2013-06-16 22:53:00,69.7,68.0,30.07,ESE,110,0.0,2.0,93,0.12,,,0.17,weatherlink.com 1.10,2013-06-17 02:53:00,
2013-06-16 23:08:00,69.3,67.0,30.07,ESE,117,0.0,2.0,93,0.12,,,0.21,weatherlink.com 1.10,2013-06-17 03:08:00,
2013-06-16 23:23:00,68.6,67.0,30.06,NNE,21,0.0,2.0,93,0.10,,,0.23,weatherlink.com 1.10,2013-06-17 03:23:00,
2013-06-16 23:38:00,68.6,67.0,30.07,NNE,23,0.0,0.0,94,0.08,,,0.23,weatherlink.com 1.10,2013-06-17 03:38:00,
2013-06-16 23:53:00,68.5,67.0,30.07,NNE,23,0.0,0.0,94,0.06,,,0.23,weatherlink.com 1.10,2013-06-17 03:53:00,